VLG87PB LEPA-LEBL

Flight info

Callsign VLG87PB
Flight time 0h 29m
Altitude 18000
Route ESPOR L2 NEPAL
Aircraft A320/M-SDE3FGHIRWY/LB1

Departure

Time 2026-05-05 05:33
Airport Palma de Mallorca Airport (LEPA)

Arrival

Time 2026-05-05 06:02
Airport Josep Tarradellas Barcelona-El Prat Airport (LEBL)
Time Latitude Longitude Altitude Speed Heading
2026-05-05 05:07 39.54693 2.73387 39 ft 0 kts 240°
2026-05-05 05:19 39.54700 2.73402 38 ft 3 kts 239°
2026-05-05 05:19 39.54711 2.73424 37 ft 3 kts 235°
2026-05-05 05:19 39.54723 2.73445 37 ft 3 kts 222°
2026-05-05 05:19 39.54738 2.73458 38 ft 3 kts 184°
2026-05-05 05:20 39.54748 2.73457 38 ft 0 kts 147°
2026-05-05 05:23 39.54747 2.73457 38 ft 1 kts 147°
2026-05-05 05:24 39.54719 2.73480 38 ft 9 kts 148°
2026-05-05 05:24 39.54651 2.73533 38 ft 13 kts 147°
2026-05-05 05:24 39.54597 2.73642 37 ft 16 kts 118°
2026-05-05 05:24 39.54625 2.73781 38 ft 18 kts 58°
2026-05-05 05:25 39.54698 2.73935 38 ft 22 kts 58°
2026-05-05 05:25 39.54791 2.74105 38 ft 23 kts 28°
2026-05-05 05:25 39.54937 2.74038 38 ft 24 kts 329°
2026-05-05 05:25 39.55087 2.73921 38 ft 25 kts 328°
2026-05-05 05:26 39.55243 2.73796 37 ft 27 kts 328°
2026-05-05 05:26 39.55406 2.73664 38 ft 28 kts 329°
2026-05-05 05:26 39.55555 2.73548 38 ft 25 kts 329°
2026-05-05 05:26 39.55687 2.73569 38 ft 20 kts 68°
2026-05-05 05:27 39.55761 2.73725 38 ft 21 kts 58°
2026-05-05 05:27 39.55843 2.73897 38 ft 24 kts 58°
2026-05-05 05:27 39.55980 2.74189 38 ft 16 kts 59°
2026-05-05 05:28 39.56036 2.74308 38 ft 15 kts 57°
2026-05-05 05:28 39.56082 2.74402 36 ft 11 kts 57°
2026-05-05 05:28 39.56136 2.74455 38 ft 0 kts
2026-05-05 05:30 39.56139 2.74454 38 ft 2 kts 358°
2026-05-05 05:30 39.56187 2.74427 38 ft 12 kts 328°
2026-05-05 05:30 39.56246 2.74331 38 ft 15 kts 279°
2026-05-05 05:31 39.56235 2.74285 38 ft 0 kts 237°
2026-05-05 05:32 39.56235 2.74284 38 ft 1 kts 237°
2026-05-05 05:33 39.56204 2.74222 38 ft 30 kts 238°
2026-05-05 05:33 39.55948 2.73677 38 ft 109 kts 239°
2026-05-05 05:33 39.55445 2.72617 207 ft 157 kts 238°
2026-05-05 05:33 39.54851 2.71374 1008 ft 172 kts 237°
2026-05-05 05:34 39.54173 2.69990 1758 ft 190 kts 236°
2026-05-05 05:34 39.53420 2.68504 2330 ft 202 kts 236°
2026-05-05 05:34 39.52635 2.66962 3131 ft 205 kts 234°
2026-05-05 05:34 39.51842 2.65408 3960 ft 209 kts 235°
2026-05-05 05:35 39.51033 2.63818 4800 ft 214 kts 236°
2026-05-05 05:35 39.50208 2.62189 5603 ft 220 kts 236°
2026-05-05 05:35 39.49362 2.60522 6044 ft 223 kts 236°
2026-05-05 05:35 39.48509 2.58848 6940 ft 222 kts 236°
2026-05-05 05:36 39.47656 2.57174 7834 ft 223 kts 236°
2026-05-05 05:36 39.46803 2.55494 8722 ft 224 kts 236°
2026-05-05 05:36 39.45946 2.53804 9610 ft 225 kts 236°
2026-05-05 05:36 39.45125 2.52050 10325 ft 236 kts 247°
2026-05-05 05:37 39.44934 2.49851 10646 ft 264 kts 278°
2026-05-05 05:37 39.45744 2.47628 11075 ft 291 kts 307°
2026-05-05 05:37 39.47383 2.45875 11343 ft 320 kts 321°
2026-05-05 05:37 39.49264 2.44223 11690 ft 338 kts 323°
2026-05-05 05:38 39.51288 2.42537 12405 ft 344 kts 323°
2026-05-05 05:38 39.53295 2.40891 13190 ft 347 kts 323°
2026-05-05 05:38 39.55454 2.39416 13895 ft 356 kts 333°
2026-05-05 05:38 39.57831 2.38426 14583 ft 362 kts 338°
2026-05-05 05:39 39.60249 2.37469 15277 ft 364 kts 337°
2026-05-05 05:39 39.62681 2.36483 15959 ft 367 kts 336°
2026-05-05 05:39 39.65120 2.35487 16611 ft 370 kts 336°
2026-05-05 05:39 39.67589 2.34477 17267 ft 374 kts 336°
2026-05-05 05:40 39.70084 2.33453 17811 ft 377 kts 336°
2026-05-05 05:40 39.72586 2.32427 17937 ft 380 kts 336°
2026-05-05 05:40 39.75158 2.31367 17969 ft 392 kts 336°
2026-05-05 05:40 39.77769 2.30298 17967 ft 394 kts 336°
2026-05-05 05:41 39.80406 2.29224 17960 ft 396 kts 336°
2026-05-05 05:41 39.83005 2.28170 17956 ft 396 kts 336°
2026-05-05 05:41 39.85641 2.27098 17956 ft 396 kts 336°
2026-05-05 05:41 39.88268 2.26028 17955 ft 396 kts 336°
2026-05-05 05:42 39.90905 2.24952 17960 ft 396 kts 336°
2026-05-05 05:42 39.93537 2.23877 17957 ft 396 kts 336°
2026-05-05 05:42 39.96165 2.22800 17958 ft 396 kts 336°
2026-05-05 05:42 39.98803 2.21717 17961 ft 397 kts 336°
2026-05-05 05:43 40.01434 2.20639 17978 ft 397 kts 336°
2026-05-05 05:43 40.04073 2.19554 17977 ft 397 kts 336°
2026-05-05 05:43 40.06710 2.18468 17976 ft 398 kts 336°
2026-05-05 05:43 40.09351 2.17382 17977 ft 398 kts 336°
2026-05-05 05:44 40.11991 2.16296 17977 ft 398 kts 336°
2026-05-05 05:44 40.14631 2.15207 17976 ft 398 kts 336°
2026-05-05 05:44 40.17274 2.14115 17976 ft 398 kts 336°
2026-05-05 05:44 40.19910 2.13028 17976 ft 398 kts 336°
2026-05-05 05:45 40.22554 2.11939 17973 ft 398 kts 336°
2026-05-05 05:45 40.25188 2.10849 17994 ft 398 kts 336°
2026-05-05 05:45 40.27831 2.09754 17989 ft 398 kts 336°
2026-05-05 05:45 40.30481 2.08657 17985 ft 399 kts 336°
2026-05-05 05:46 40.33120 2.07563 17983 ft 399 kts 336°
2026-05-05 05:46 40.35771 2.06462 17980 ft 399 kts 336°
2026-05-05 05:46 40.38386 2.05375 17980 ft 399 kts 336°
2026-05-05 05:46 40.41028 2.04275 17977 ft 399 kts 336°
2026-05-05 05:47 40.43661 2.03179 17856 ft 393 kts 336°
2026-05-05 05:47 40.46224 2.02118 17598 ft 381 kts 336°
2026-05-05 05:47 40.48718 2.01089 17340 ft 370 kts 336°
2026-05-05 05:47 40.51159 2.00078 17077 ft 366 kts 336°
2026-05-05 05:48 40.52761 1.99409 16898 ft 364 kts 336°
2026-05-05 05:48 40.55174 1.98399 16635 ft 363 kts 336°
2026-05-05 05:48 40.57570 1.97396 16385 ft 361 kts 336°
2026-05-05 05:48 40.59961 1.96396 16128 ft 360 kts 336°
2026-05-05 05:49 40.62339 1.95397 15816 ft 356 kts 336°
2026-05-05 05:49 40.64692 1.94408 15316 ft 353 kts 337°
2026-05-05 05:49 40.67092 1.93645 14801 ft 357 kts 349°
2026-05-05 05:49 40.69590 1.93660 14281 ft 363 kts
2026-05-05 05:50 40.72035 1.94522 13730 ft 368 kts 20°
2026-05-05 05:50 40.74302 1.96078 13238 ft 365 kts 27°
2026-05-05 05:50 40.76533 1.97694 12714 ft 362 kts 26°
2026-05-05 05:50 40.78743 1.99277 12104 ft 362 kts 26°
2026-05-05 05:51 40.80936 2.00838 11732 ft 355 kts 26°
2026-05-05 05:51 40.83107 2.02381 11243 ft 353 kts 26°
2026-05-05 05:51 40.85259 2.03916 10771 ft 350 kts 26°
2026-05-05 05:51 40.87362 2.05427 10609 ft 338 kts 27°
2026-05-05 05:52 40.89395 2.06892 10502 ft 326 kts 26°
2026-05-05 05:52 40.91351 2.08302 10326 ft 317 kts 26°
2026-05-05 05:52 40.93257 2.09680 10034 ft 313 kts 27°
2026-05-05 05:52 40.95151 2.11086 9692 ft 311 kts 27°
2026-05-05 05:53 40.97028 2.12502 9335 ft 309 kts 27°
2026-05-05 05:53 40.98886 2.13913 8976 ft 307 kts 27°
2026-05-05 05:53 41.00736 2.15315 8623 ft 306 kts 27°
2026-05-05 05:53 41.02577 2.16704 8276 ft 304 kts 27°
2026-05-05 05:54 41.04408 2.18084 7934 ft 302 kts 27°
2026-05-05 05:54 41.06228 2.19456 7594 ft 300 kts 27°
2026-05-05 05:54 41.08035 2.20820 7263 ft 298 kts 27°
2026-05-05 05:54 41.09831 2.22173 6932 ft 296 kts 27°
2026-05-05 05:55 41.11615 2.23519 6609 ft 294 kts 26°
2026-05-05 05:55 41.13391 2.24861 6267 ft 293 kts 26°
2026-05-05 05:55 41.15156 2.26195 5928 ft 291 kts 27°
2026-05-05 05:55 41.16920 2.27510 5588 ft 289 kts 23°
2026-05-05 05:56 41.18792 2.28372 5257 ft 283 kts
2026-05-05 05:56 41.20720 2.28789 4914 ft 280 kts
2026-05-05 05:56 41.22644 2.29193 4571 ft 279 kts
2026-05-05 05:56 41.24556 2.29597 4232 ft 277 kts
2026-05-05 05:57 41.26443 2.30001 3742 ft 273 kts
2026-05-05 05:57 41.28322 2.30408 3060 ft 273 kts
2026-05-05 05:57 41.30182 2.30811 2585 ft 264 kts
2026-05-05 05:57 41.31945 2.31193 2349 ft 248 kts
2026-05-05 05:58 41.33573 2.31546 2296 ft 224 kts
2026-05-05 05:58 41.35014 2.31585 2300 ft 203 kts 340°
2026-05-05 05:58 41.36159 2.30600 2306 ft 196 kts 304°
2026-05-05 05:58 41.36638 2.28915 2317 ft 196 kts 272°
2026-05-05 05:59 41.36316 2.27177 2315 ft 199 kts 248°
2026-05-05 05:59 41.35737 2.25501 2307 ft 199 kts 248°
2026-05-05 05:59 41.35159 2.23825 2183 ft 200 kts 248°
2026-05-05 05:59 41.34583 2.22140 1984 ft 196 kts 248°
2026-05-05 06:00 41.34040 2.20548 1717 ft 182 kts 248°
2026-05-05 06:00 41.33533 2.19060 1467 ft 170 kts 248°
2026-05-05 06:00 41.33057 2.17663 1232 ft 159 kts 248°
2026-05-05 06:00 41.32629 2.16409 1042 ft 144 kts 246°
2026-05-05 06:01 41.32225 2.15221 848 ft 138 kts 248°
2026-05-05 06:01 41.31831 2.14066 668 ft 136 kts 249°
2026-05-05 06:01 41.31441 2.12938 499 ft 134 kts 248°
2026-05-05 06:01 41.31054 2.11812 310 ft 135 kts 256°
2026-05-05 06:02 41.30677 2.10677 143 ft 133 kts 251°
2026-05-05 06:02 41.30290 2.09561 28 ft 128 kts 253°
2026-05-05 06:02 41.30004 2.08661 24 ft 83 kts 246°
2026-05-05 06:02 41.29808 2.08103 19 ft 46 kts 245°
2026-05-05 06:03 41.29695 2.07937 16 ft 21 kts 221°
2026-05-05 06:03 41.29577 2.07815 16 ft 21 kts 217°
2026-05-05 06:03 41.29470 2.07698 17 ft 19 kts 234°
2026-05-05 06:03 41.29410 2.07523 17 ft 23 kts 247°
2026-05-05 06:04 41.29331 2.07359 16 ft 17 kts 190°
2026-05-05 06:04 41.29221 2.07354 19 ft 17 kts 218°
2026-05-05 06:04 41.29178 2.07238 19 ft 11 kts 247°
2026-05-05 06:04 41.29127 2.07229 20 ft 8 kts 157°
2026-05-05 06:05 41.29101 2.07245 19 ft 0 kts 155°